星链-4370 (STARLINK-4370 )

导读

STARLINK-4370是美国太空探索技术公司Starlink“星链”卫星星座的一员,于2022年7月22日发射升空。星链项目旨在构建全球卫星互联网星座,为全球提供高速宽带互联网服务,该卫星加入星座后,进一步扩充了星链网络的覆盖范围与服务能力。

基本信息
目录编号:
53231
目录名称:
STARLINK-4370
国际标识:
2022-084AU
轨道中心:
EARTH
卫星名称:
星链-4370
卫星全名:
星链-4370 (STARLINK-4370 )
卫星状态:
在轨 (已飞行1426 天)
发射日期:
2022-07-22 UTC
国别 :
美国 (US)
星等 :
--
轨道信息
数据来源 国际轨道数据 AOE轨道数据
星历时间 2026-06-17T10:21:13+0800
7小时前
查看轨道信息
2026-06-16T23:00:00+0800
19小时前
查看轨道信息
半长轴 6927.631km 6927.643km
偏心率 0.0001443 0.0001317
轨道倾角 97.352° 97.356°
近地点辐角 144.765° 131.964°
升交点赤经 228.222° 227.773°
平近点角 215.367° 185.603°
近地点 548.494km 548.593km
远地点 550.494km 550.419km
周期 95.639分钟 95.640分钟
每日圈数 15.056557 15.05652
详细信息
固有亮度:
5
最大亮度:
2.5
卫星平台:
Starlink v1.5
覆盖范围:
全球
运营商:
太空探索技术公司
运营商所在国:
美国
制造商(研发单位):
太空探索技术公司
制造商所在国:
美国
使用方式:
暂无
卫星简介
星链(Starlink)计划是由太空探索技术公司(SpaceX)提出的一个巨型低轨卫星互联网星座项目,计划在2019年至2024年间在太空搭建由约1.2万颗卫星组成的“星链”网络,其中1584颗将部署在地球上空550千米处的近地轨道,并从2020年开始工作。该卫星仍在工作。
2D轨道图
3D轨道图
轨道高度分析图
轨道倾角分析图
轨道综合分析图
查看轨道综合分析图